Retour au catalogue

FENGYUN 1C DEB

ActifSSO
NORAD 30357·DEBRIS·🇨🇳 China

Lancé May 10, 1999 depuis Taiyuan Satellite Launch Center

Loading…

Prochains Passages (prochaines 24 heures)

TLE

FraisSource: Space-Track

Époque: Sep 14, 2026, 07:26 UTC

1 30357U 99025ABU 26257.31003566  .00000142  00000-0  11279-3 0  9999
2 30357  98.7824 281.2572 0048227 276.2612 146.5180 14.05374123  6724

Suivez FENGYUN 1C DEB en temps réel avec AllMySat

Download on the App Store